Voltar ao catálogo

STARLINK-5660

AtivoComunicaçõesVLEO
NORAD 55335·PAYLOAD·🇺🇸 United States

Lançado Jan 26, 2023 de Cape Canaveral Space Force Station

Loading…

Próximas Passagens (próximas 24 horas)

TLE

AtualizadoSource: CelesTrak SupGP

Época: Sep 15, 2026, 01:23 UTC

1 55335C 23013E   26258.05812500  .00032578  00000+0  11800-2 0  2588
2 55335  43.0020 314.1946 0001154 274.8949  30.1622 15.27562405    16

Acompanhe STARLINK-5660 em tempo real com AllMySat

Download on the App Store